Weather History for KWJF - November, 2011

Change the Weather History Date:

Friday, November 4, 2011

  Actual Average Record
Temperature  
Mean Temperature 46 °F 56 °F  
Max Temperature 52 °F 72 °F 85 °F (1999)
Min Temperature 40 °F 40 °F 23 °F (1994)
Degree Days  
Heating Degree Days 19    
Month to date heating degree days 53  
Since 1 July heating degree days 173  
Cooling Degree Days 0    
Month to date cooling degree days 3  
Year to date cooling degree days 1754  
Moisture  
Dew Point 38 °F    
Average Humidity 70    
Maximum Humidity 89    
Minimum Humidity 50    
Precipitation  
Precipitation 0.09 in 0.01 in 1.06 in (1987)
Month to date precipitation 0.09 0.06  
Year to date precipitation 4.16 5.75  
Since 1 July precipitation 0.51 0.84  
Snow  
Snow 0.00 in - 0.00 in ()
Month to date snowfall 0.0  
Since 1 July snowfall 0.0  
Since 1 September snowfall 0.0  
Snow Depth 0.00 in    
Sea Level Pressure  
Sea Level Pressure 29.77 in    
Wind  
Wind Speed 14 mph (West)    
Max Wind Speed 24 mph    
Max Gust Speed 82 mph    
Visibility 10 miles    
Events Rain    
T = Trace of Precipitation, MM = Missing Value Source: NWS Daily Summary

Daily Weather History Graph

Daily Weather History Graph

Search for Another Location

Airport or City:

Trip Planner

Search our weather history database for the weather conditions in past years. The results will help you decide how hot, cold, wet, or windy it might be!

Date:

Astronomy

Nov. 04, 2011 Rise Set
Actual Time 7:16 AM PDT 5:56 PM PDT
Civil Twilight 6:49 AM PDT 6:22 PM PDT
Nautical Twilight 6:19 AM PDT 6:52 PM PDT
Astronomical Twilight 5:50 AM PDT 7:21 PM PDT
Moon 2:38 PM PDT (11/4) 1:45 AM PDT (11/4)
Length of Visible Light 11h 32m
Length of Day
10h 40m
Waxing Gibbous, 70% of the Moon is Illuminated
Nov 4
Waxing Gibbous
Nov 10
Full
Nov 18
Last Quarter
Nov 24
New
Dec 2
First Quarter

Hourly Weather History & Observations

Time (PDT) Temp. Windchill Dew Point Humidity Pressure Visibility Wind Dir Wind Speed Gust Speed Precip Events Conditions
12:56 AM 52.0 °F - 41.0 °F 66% 29.83 in 10.0 mi WSW 17.3 mph - N/A   Mostly Cloudy
1:51 AM 51.8 °F - 42.8 °F 71% 29.83 in 10.0 mi West 12.7 mph - N/A   Overcast
1:56 AM 52.0 °F - 43.0 °F 71% 29.81 in 10.0 mi WSW 11.5 mph - N/A   Overcast
2:30 AM 51.8 °F - 42.8 °F 71% 29.81 in 10.0 mi WSW 15.0 mph - 0.00 in   Overcast
2:56 AM 52.0 °F - 41.0 °F 66% 29.78 in 10.0 mi WSW 15.0 mph 23.0 mph 0.00 in   Overcast
3:56 AM 51.1 °F - 41.0 °F 68% 29.76 in 10.0 mi WSW 13.8 mph - N/A   Overcast
4:56 AM 48.9 °F - 45.0 °F 86% 29.75 in 6.0 mi WSW 9.2 mph - 0.03 in Rain Rain
5:21 AM 48.2 °F - 44.6 °F 87% 29.77 in 10.0 mi WSW 11.5 mph - 0.02 in Rain Light Rain
5:56 AM 48.9 °F - 45.0 °F 86% 29.75 in 9.0 mi WSW 15.0 mph - 0.03 in Rain Light Rain
6:56 AM 45.0 °F 38.5 °F 41.0 °F 86% 29.75 in 10.0 mi West 13.8 mph - 0.03 in   Overcast
7:05 AM 44.6 °F 37.4 °F 39.2 °F 81% 29.76 in 10.0 mi West 16.1 mph - N/A   Overcast
7:56 AM 43.0 °F 37.2 °F 39.0 °F 86% 29.78 in 10.0 mi West 10.4 mph - N/A   Clear
8:56 AM 48.9 °F - 41.0 °F 74% 29.78 in 10.0 mi WSW 12.7 mph - N/A   Partly Cloudy
9:56 AM 50.0 °F - 37.9 °F 63% 29.78 in 10.0 mi WSW 13.8 mph - N/A   Mostly Cloudy
10:56 AM 51.1 °F - 39.0 °F 63% 29.77 in 10.0 mi WSW 16.1 mph - N/A   Overcast
11:56 AM 52.0 °F - 39.0 °F 61% 29.75 in 10.0 mi West 13.8 mph - N/A   Scattered Clouds
12:56 PM 50.0 °F - 37.9 °F 63% 29.74 in 10.0 mi West 17.3 mph - 0.00 in Rain Light Rain
1:56 PM 48.0 °F - 37.0 °F 66% 29.73 in 10.0 mi West 20.7 mph - 0.00 in   Overcast
2:15 PM 46.4 °F 38.5 °F 37.4 °F 71% 29.72 in 10.0 mi West 21.9 mph - N/A   Overcast
2:38 PM 46.4 °F 40.1 °F 37.4 °F 71% 29.72 in 10.0 mi WSW 15.0 mph - N/A   Overcast
2:56 PM 46.0 °F 40.2 °F 37.0 °F 71% 29.72 in 10.0 mi West 12.7 mph - N/A   Overcast
3:56 PM 51.1 °F - 33.1 °F 50% 29.69 in 10.0 mi West 24.2 mph 29.9 mph N/A   Partly Cloudy
4:56 PM 48.0 °F - 34.0 °F 58% 29.71 in 10.0 mi West 21.9 mph 29.9 mph N/A   Clear
5:56 PM 44.1 °F 35.7 °F 35.1 °F 71% 29.73 in 10.0 mi West 20.7 mph 25.3 mph N/A   Clear
6:56 PM 44.1 °F 37.7 °F 33.1 °F 65% 29.75 in 10.0 mi West 12.7 mph 24.2 mph N/A   Clear
7:56 PM 42.1 °F 35.7 °F 34.0 °F 73% 29.77 in 10.0 mi North 11.5 mph 81.7 mph N/A   Clear
8:01 PM 42.8 °F 36.6 °F 33.8 °F 70% 29.75 in 10.0 mi West 11.5 mph 81.7 mph N/A   Squalls
8:56 PM 42.1 °F - 33.1 °F 70% 29.80 in 10.0 mi Calm Calm - N/A   Partly Cloudy
9:56 PM 44.1 °F 37.4 °F 30.0 °F 58% 29.82 in 10.0 mi WNW 13.8 mph - N/A   Mostly Cloudy
10:56 PM 43.0 °F 36.4 °F 30.9 °F 62% 29.85 in 10.0 mi NW 12.7 mph 19.6 mph N/A   Partly Cloudy
11:56 PM 43.0 °F 36.8 °F 30.9 °F 62% 29.86 in 10.0 mi West 11.5 mph - N/A   Clear